PBO Station Position Time Series. Reference Frame : NAM14
Format Version,1.1.1
4-character ID,P664
Station name,LVMtHelen_CN2007
Begin Date, 2007-10-05
End Date, 2023-06-26
Release Date, 2023-06-27
Reference position, 40.4731960455 North Latitude, -121.4959054681 East Longitude, 2569.10876 meters elevation,
Date, North (mm), East (mm), Vertical (mm), North Std. Deviation (mm), East Std. Deviation (mm),              Vertical Std. Deviation (mm), Quality,
2007-10-05,0.00, 0.00, 0.00, 2.37, 1.82, 8.74, repro,
2007-10-06,-1.16, -0.08, 9.22, 2.39, 1.81, 8.73, repro,
2007-10-07,0.33, 0.08, 3.36, 2.32, 1.76, 8.36, repro,
2007-10-08,0.54, 1.19, 3.42, 2.62, 2.00, 9.71, repro,
2007-10-09,0.24, 0.74, 12.04, 2.51, 2.10, 9.62, repro,
2007-10-10,2.03, 1.48, -1.59, 2.66, 1.98, 9.86, repro,
2007-10-11,1.17, -0.17, 0.99, 2.44, 1.89, 9.04, repro,
2007-10-12,2.72, 1.73, -7.05, 2.35, 1.87, 8.78, repro,
2007-10-13,1.07, 0.05, 1.81, 2.28, 1.71, 8.25, repro,
2007-10-14,2.13, 0.69, 2.47, 2.36, 1.82, 8.77, repro,
2007-10-15,1.25, 0.68, 1.18, 2.33, 1.73, 8.56, repro,
2007-10-16,0.74, 3.23, 15.09, 2.31, 1.76, 8.38, repro,
2007-10-17,-0.90, 2.78, 9.99, 2.74, 2.13, 10.60, repro,
2007-10-18,0.99, 4.12, 6.10, 2.32, 1.84, 8.55, repro,
2007-10-19,0.88, 3.70, 7.33, 2.33, 1.71, 8.48, repro,
2007-10-20,-0.86, 0.11, 13.59, 2.48, 2.01, 9.44, repro,
2007-10-21,-0.07, -0.45, 2.38, 2.31, 1.83, 8.79, repro,
2007-10-22,-0.02, -0.56, 0.82, 2.60, 2.02, 9.87, repro,
2007-10-23,2.16, 1.30, -3.96, 2.45, 1.85, 9.11, repro,
2007-10-24,0.52, 2.29, -1.51, 2.56, 1.95, 9.45, repro,
2007-10-25,0.80, 1.07, -2.34, 2.32, 1.75, 8.61, repro,
2007-10-26,0.36, 1.56, -0.77, 2.41, 1.88, 9.15, repro,
2007-10-27,0.46, 1.09, 5.02, 2.32, 1.71, 8.40, repro,
2007-10-28,1.78, 0.66, -2.62, 2.39, 1.75, 8.76, repro,
2007-10-29,1.92, 2.50, -8.34, 2.33, 1.74, 8.53, repro,
2007-10-30,-0.96, 0.32, -3.25, 2.30, 1.71, 8.26, repro,
2007-10-31,-0.49, 1.08, 3.76, 2.40, 1.77, 8.91, repro,
2007-11-01,-0.02, 0.66, 2.48, 2.45, 1.80, 9.18, repro,
2007-11-02,1.07, 0.94, -0.80, 2.27, 1.70, 8.24, repro,
2007-11-03,1.74, 1.16, -4.20, 2.31, 1.75, 8.56, repro,
2007-11-04,2.00, 0.86, -0.13, 2.39, 1.78, 8.62, repro,
2007-11-05,0.35, 0.98, -3.27, 2.30, 1.72, 8.50, repro,
2007-11-06,0.60, 2.18, -4.28, 2.35, 1.83, 8.74, repro,
2007-11-07,1.26, 0.66, -3.69, 2.28, 1.69, 8.22, repro,
2007-11-08,0.42, 0.37, 0.42, 2.43, 1.86, 9.00, repro,
2007-11-09,0.61, 0.71, -8.79, 2.36, 1.83, 8.67, repro,
2007-11-10,2.15, 1.72, -6.33, 2.36, 1.70, 8.40, repro,
2007-11-11,4.10, -0.85, -5.14, 2.32, 1.79, 8.74, repro,
2007-11-12,1.98, 1.44, -1.28, 2.46, 1.82, 9.07, repro,
2007-11-13,-0.24, 5.45, -8.34, 2.21, 1.66, 8.09, repro,
2007-11-14,1.99, 3.24, -4.62, 2.30, 1.77, 8.41, repro,
2007-11-15,1.58, 2.03, -5.69, 2.27, 1.69, 8.08, repro,
2007-11-16,0.19, 2.28, -0.32, 2.30, 1.67, 8.28, repro,
2007-11-17,1.56, 0.83, -10.07, 2.33, 1.70, 8.29, repro,
2007-11-18,3.35, 2.34, -13.90, 2.24, 1.71, 8.34, repro,
2007-11-19,2.40, 2.17, -3.08, 2.35, 1.72, 8.62, repro,
2007-11-20,2.87, 1.50, -12.64, 2.27, 1.74, 8.27, repro,
2007-11-21,2.12, 0.72, -4.42, 2.26, 1.68, 8.30, repro,
2007-11-22,2.22, 1.22, -13.50, 2.31, 1.72, 8.51, repro,
2007-11-23,3.21, 0.30, -13.48, 2.43, 1.87, 8.95, repro,
2007-11-24,1.65, 0.93, -1.15, 2.39, 1.90, 8.81, repro,
2007-11-25,2.64, -0.48, -5.27, 2.32, 1.75, 8.29, repro,
2007-11-26,2.20, 1.52, -6.24, 2.29, 1.78, 8.34, repro,
2007-11-27,2.43, 1.35, -5.00, 2.26, 1.77, 8.42, repro,
2007-11-28,0.83, 0.66, -8.11, 2.38, 1.78, 8.60, repro,
2007-11-29,1.18, 0.92, -12.41, 2.23, 1.74, 8.14, repro,
2007-11-30,2.87, 0.79, -8.74, 2.26, 1.73, 8.32, repro,
2007-12-01,2.36, 1.17, -2.20, 2.30, 1.80, 8.45, repro,
2007-12-02,0.95, 4.94, 2.58, 2.22, 1.70, 7.98, repro,
2007-12-03,-4.99, 16.60, 10.96, 2.31, 1.80, 8.61, repro,
2007-12-04,2.59, 2.97, -12.68, 2.41, 1.98, 9.22, repro,
2007-12-05,3.18, 1.07, -5.09, 2.39, 1.91, 8.99, repro,
2007-12-06,2.24, 1.47, -4.20, 2.42, 1.91, 9.20, repro,
2007-12-07,2.23, 0.01, -4.60, 2.32, 1.82, 8.62, repro,
2007-12-08,1.18, -0.02, -1.70, 2.26, 1.77, 8.28, repro,
2007-12-09,3.51, 0.68, -15.02, 2.29, 1.80, 8.52, repro,
2007-12-10,1.96, 0.57, -6.15, 2.33, 1.84, 8.80, repro,
2007-12-11,1.75, 0.66, -8.99, 2.26, 1.85, 8.56, repro,
2007-12-12,1.92, 1.50, -11.96, 2.30, 1.79, 8.66, repro,
2007-12-13,1.64, -0.01, -14.40, 2.36, 1.81, 8.63, repro,
2007-12-14,2.61, 0.84, -8.45, 2.57, 1.86, 9.37, repro,
2007-12-15,2.18, 1.69, -2.59, 2.29, 1.70, 8.26, repro,
2007-12-16,2.52, 1.90, -9.84, 2.33, 1.77, 8.39, repro,
2007-12-17,2.44, 1.81, -7.79, 2.32, 1.72, 8.45, repro,
2007-12-18,2.37, 2.70, 0.44, 2.44, 1.72, 8.58, repro,
2007-12-19,-0.31, 3.86, 7.11, 2.38, 1.85, 8.56, repro,
2007-12-20,0.83, 2.04, -0.77, 2.31, 1.71, 8.33, repro,
2007-12-21,-0.37, 1.40, -9.52, 2.32, 1.76, 8.34, repro,
2007-12-22,0.91, 0.61, -23.21, 2.37, 1.78, 8.42, repro,
2007-12-23,0.68, 4.99, -8.93, 2.23, 1.69, 8.13, repro,
2007-12-24,1.35, 1.51, -3.81, 2.27, 1.71, 8.13, repro,
2007-12-25,0.33, 1.31, -7.54, 2.31, 1.72, 8.38, repro,
2007-12-26,0.03, 1.85, -1.21, 2.21, 1.69, 7.92, repro,
2007-12-27,1.84, 2.40, -4.31, 2.28, 1.77, 8.36, repro,
2007-12-28,1.30, 2.48, -8.53, 2.40, 1.78, 8.73, repro,
2007-12-29,1.43, 6.53, -0.80, 2.46, 1.82, 8.97, repro,
2007-12-30,0.99, 5.38, -2.82, 2.41, 1.78, 8.88, repro,
2007-12-31,1.29, 1.98, -11.36, 2.56, 1.86, 9.13, repro,
2008-01-01,1.64, 1.00, -15.67, 2.38, 1.79, 8.63, repro,
2008-01-02,3.22, 1.98, -13.40, 2.37, 1.76, 8.81, repro,
2008-01-03,2.66, 1.66, 1.41, 2.38, 1.78, 8.75, repro,
2008-01-04,2.70, 0.58, 7.15, 2.54, 1.84, 9.21, repro,
2008-01-05,1.45, 2.31, 1.84, 2.48, 1.77, 8.96, repro,
2008-01-06,4.62, 0.23, -9.98, 2.50, 1.78, 8.87, repro,
2008-01-07,0.97, 2.15, -4.96, 2.41, 1.79, 9.05, repro,
2008-01-08,-0.40, 3.16, -4.46, 2.47, 1.83, 9.21, repro,
2008-01-09,-0.21, 2.57, 0.49, 2.40, 1.81, 8.93, repro,
2008-01-10,-0.10, 2.68, -0.22, 2.45, 1.83, 8.99, repro,
2008-01-11,1.33, 2.12, -10.80, 2.41, 1.77, 8.87, repro,
2008-01-12,1.11, 4.69, -15.75, 2.38, 1.74, 8.51, repro,
2008-01-13,0.74, 3.03, -16.46, 2.41, 1.77, 8.83, repro,
2008-01-14,1.29, 2.71, -14.55, 2.40, 1.82, 8.92, repro,
2008-01-15,0.50, 3.42, -9.88, 2.27, 1.73, 8.31, repro,
2008-01-16,1.49, 1.30, -17.41, 2.47, 1.88, 8.95, repro,
2008-01-17,-2.38, 0.95, -11.48, 2.35, 1.72, 8.53, repro,
2008-01-18,-0.49, 0.99, -9.85, 2.35, 1.80, 8.95, repro,
2008-01-19,1.65, 2.23, -14.79, 2.39, 1.80, 8.86, repro,
2008-01-20,0.91, 2.84, -14.13, 2.33, 1.74, 8.38, repro,
2008-01-21,3.49, 2.70, -23.46, 2.42, 1.78, 8.81, repro,
2008-01-22,2.71, 2.98, -23.88, 2.51, 1.90, 9.22, repro,
2008-01-23,3.38, 3.37, -16.12, 2.56, 1.89, 9.13, repro,
2008-01-24,2.99, 2.10, -15.24, 2.31, 1.70, 8.12, repro,
2008-01-25,2.00, 2.22, -11.06, 2.45, 1.84, 8.83, repro,
2008-01-26,2.58, 2.69, -3.48, 2.40, 1.69, 8.40, repro,
2008-01-27,3.70, 3.63, -3.92, 2.67, 1.94, 9.71, repro,
2008-01-28,2.98, 3.21, -16.27, 2.58, 1.83, 9.09, repro,
2008-01-29,2.25, 2.39, -15.66, 2.56, 1.97, 9.29, repro,
2008-01-30,-4.03, 2.19, 1.62, 2.73, 2.01, 10.31, repro,
2008-01-31,-3.15, 2.67, -2.31, 2.54, 1.83, 9.23, repro,
2008-02-01,-8.35, 7.48, 28.40, 2.74, 1.88, 9.60, repro,
2008-02-02,-9.52, 7.38, 30.75, 2.35, 1.74, 8.46, repro,
2008-02-03,-12.85, 11.59, 22.36, 2.39, 1.71, 8.91, repro,
2008-02-04,-13.37, 12.56, 20.20, 2.20, 1.70, 8.21, repro,
2008-02-05,-14.46, 13.22, 16.56, 2.30, 1.80, 8.32, repro,
2008-02-06,-10.94, 13.34, 16.04, 2.28, 1.74, 8.16, repro,
2008-02-07,-11.98, 13.49, 12.48, 2.27, 1.67, 8.19, repro,
2008-02-08,-11.81, 11.06, 2.67, 2.23, 1.65, 7.94, repro,
2008-02-09,-12.30, 11.26, 11.00, 2.17, 1.65, 7.88, repro,
2008-02-10,-7.58, 16.30, 14.53, 2.21, 1.69, 8.11, repro,
2008-02-11,-8.76, 9.27, 11.59, 2.21, 1.66, 7.97, repro,
2008-02-12,-21.98, 16.63, 36.31, 2.28, 1.70, 8.40, repro,
2008-02-13,-13.35, 7.68, 12.08, 2.24, 1.67, 8.14, repro,
2008-02-14,-8.65, 6.42, 3.40, 2.24, 1.64, 8.02, repro,
2008-02-15,-7.62, 4.99, 4.11, 2.34, 1.77, 8.67, repro,
2008-02-16,2.21, 7.51, -22.55, 2.26, 1.67, 8.34, repro,
2008-02-17,1.41, 2.95, -18.76, 2.52, 1.83, 9.52, repro,
2008-02-18,1.43, 1.41, -18.39, 2.52, 1.88, 9.60, repro,
2008-02-19,0.94, 1.55, -17.30, 2.37, 1.69, 8.67, repro,
2008-02-20,3.09, 0.36, -22.86, 2.40, 1.76, 9.00, repro,
2008-02-21,3.70, 1.40, -18.96, 2.62, 1.93, 9.93, repro,
2008-02-22,-4.66, 5.43, -0.70, 2.55, 1.78, 9.38, repro,
2008-02-23,-6.70, 9.28, -2.08, 2.37, 1.71, 8.66, repro,
2008-02-24,-13.77, 10.29, 28.09, 2.49, 1.82, 9.48, repro,
2008-02-25,-19.25, 17.23, 39.36, 2.35, 1.66, 8.81, repro,
2008-02-26,-20.41, 14.58, 41.70, 2.38, 1.72, 8.95, repro,
2008-02-27,-18.58, 15.38, 25.83, 2.40, 1.70, 9.06, repro,
2008-02-28,-30.29, 12.94, 43.90, 2.43, 1.73, 9.22, repro,
2008-02-29,-24.13, 19.30, 36.92, 2.47, 1.69, 9.35, repro,
2008-03-01,-26.31, 10.61, 29.64, 2.36, 1.68, 8.89, repro,
2008-03-02,-24.20, 9.76, 27.81, 2.37, 1.70, 9.01, repro,
2008-03-03,-25.79, 9.70, 34.21, 2.45, 1.77, 9.24, repro,
2008-03-04,-31.74, 7.35, 40.48, 2.42, 1.78, 9.46, repro,
2008-03-05,-28.22, 14.72, 34.03, 2.52, 1.82, 9.81, repro,
2008-03-06,-23.38, 18.48, 24.84, 2.38, 1.73, 9.13, repro,
2008-03-07,-20.37, 17.10, 18.40, 2.38, 1.72, 9.08, repro,
2008-03-08,-22.56, 16.24, 17.92, 2.45, 1.73, 9.20, repro,
2008-03-09,-25.59, 14.47, 23.54, 2.36, 1.72, 8.98, repro,
2008-03-10,-38.37, 17.46, 62.00, 2.32, 1.69, 8.69, repro,
2008-03-11,-34.13, 11.14, 54.24, 2.34, 1.70, 8.75, repro,
2008-03-12,-21.29, 8.07, 29.78, 2.41, 1.73, 9.09, repro,
2008-03-13,-14.68, 10.61, 36.30, 2.49, 1.88, 9.95, repro,
2008-03-14,-16.68, 11.59, 41.33, 2.42, 1.73, 9.08, repro,
2008-03-15,-19.35, 13.15, 38.50, 2.29, 1.71, 8.51, repro,
2008-03-16,-19.06, 10.42, 42.54, 2.33, 1.72, 8.37, repro,
2008-03-17,-27.99, 13.94, 48.97, 2.63, 2.03, 10.33, repro,
2008-03-18,-15.80, 17.35, 48.11, 2.47, 1.77, 9.28, repro,
2008-03-19,-20.10, 16.23, 50.84, 2.30, 1.71, 8.58, repro,
2008-03-20,-20.47, 16.45, 46.85, 2.28, 1.69, 8.42, repro,
2008-03-21,-22.27, 17.83, 43.84, 2.58, 1.79, 9.62, repro,
2008-03-22,-23.07, 18.37, 49.70, 2.55, 1.79, 9.64, repro,
2008-03-23,-26.04, 13.05, 92.31, 2.34, 1.73, 8.69, repro,
2008-03-24,-13.67, 15.29, 30.81, 2.35, 1.72, 8.89, repro,
2008-03-25,-17.04, 15.64, 29.49, 2.39, 1.75, 8.91, repro,
2008-03-26,-10.12, 11.97, 12.87, 2.37, 1.74, 8.85, repro,
2008-03-27,-11.94, 12.18, 4.26, 2.51, 1.90, 9.37, repro,
2008-03-28,-6.66, 13.90, -8.99, 2.34, 1.70, 8.67, repro,
2008-03-29,-9.99, 12.08, 10.72, 2.32, 1.68, 8.61, repro,
2008-03-30,-5.78, 11.85, 2.86, 2.31, 1.68, 8.65, repro,
2008-03-31,-2.87, 10.92, -12.39, 2.36, 1.69, 8.88, repro,
2008-04-01,-0.64, 10.91, -30.81, 2.40, 1.69, 9.07, repro,
2008-04-02,0.37, 11.14, -26.09, 2.54, 1.77, 9.76, repro,
2008-04-03,5.71, 3.28, -34.38, 2.45, 1.69, 9.33, repro,
2008-04-04,4.29, 1.65, -34.24, 2.52, 1.79, 9.61, repro,
2008-04-05,2.79, 0.74, -27.26, 2.42, 1.73, 9.28, repro,
2008-04-06,-2.32, -3.40, -13.05, 5.34, 3.36, 20.13, repro,
2008-05-08,2.99, 3.98, 1.70, 7.21, 4.80, 26.34, repro,
2008-05-09,1.35, 2.09, -16.48, 2.34, 1.71, 8.59, repro,
2008-05-10,2.41, 2.15, -16.19, 2.41, 1.74, 8.89, repro,
2008-05-11,0.51, 1.87, -10.53, 2.32, 1.70, 8.41, repro,
2008-05-12,-1.11, 0.21, -3.52, 2.56, 1.79, 9.49, repro,
2008-05-13,-0.04, 0.86, -11.00, 2.34, 1.69, 8.52, repro,
2008-05-14,-1.39, -1.79, -15.46, 2.29, 1.67, 8.38, repro,
2008-05-15,0.53, -0.81, -18.07, 2.28, 1.67, 8.35, repro,
2008-05-16,3.08, 1.82, -23.04, 2.35, 1.88, 8.60, repro,
2008-05-17,2.55, -0.31, -21.46, 2.34, 1.80, 8.60, repro,
2008-05-18,0.78, 1.25, -11.03, 2.45, 1.76, 8.94, repro,
2008-05-19,1.06, 0.80, -12.09, 2.37, 1.86, 8.91, repro,
2008-05-20,1.89, 1.72, -4.73, 2.24, 1.66, 8.32, repro,
2008-05-21,0.87, 0.96, -3.56, 2.29, 1.67, 8.31, repro,
2008-05-22,2.31, -0.32, -6.09, 2.30, 1.71, 8.55, repro,
2008-05-23,2.32, 0.02, -6.88, 2.36, 1.71, 8.95, repro,
2008-05-24,2.63, 0.26, -15.14, 2.49, 1.75, 9.16, repro,
2008-05-25,1.65, 0.91, -12.14, 2.35, 1.71, 8.70, repro,
2008-05-26,2.77, 0.09, -18.72, 2.35, 1.69, 8.77, repro,
2008-05-27,0.83, 1.80, -13.54, 2.29, 1.72, 8.49, repro,
2008-05-28,0.84, 0.71, -14.22, 2.35, 1.67, 8.68, repro,
2008-05-29,1.21, 0.87, -11.75, 2.41, 1.81, 8.97, repro,
2008-05-30,3.39, 1.01, -11.67, 2.28, 1.70, 8.35, repro,
2008-05-31,1.89, 1.40, -7.50, 2.25, 1.66, 8.23, repro,
2008-06-01,2.23, 1.36, -10.65, 2.35, 1.71, 8.73, repro,
2008-06-02,3.29, 0.86, -16.55, 2.35, 1.76, 8.73, repro,
2008-06-03,1.27, 1.40, -3.91, 2.46, 1.81, 9.08, repro,
2008-06-04,0.29, 0.58, -3.84, 2.44, 1.71, 8.90, repro,
2008-06-05,0.96, 1.09, -5.63, 2.26, 1.68, 8.28, repro,
2008-06-06,1.91, 3.45, -11.02, 2.44, 1.79, 8.95, repro,
2008-06-07,1.36, -0.71, -4.45, 2.39, 1.76, 8.78, repro,
2008-06-08,1.41, 1.24, -9.69, 2.40, 1.88, 8.64, repro,
2008-06-09,1.32, 1.38, -9.79, 2.45, 1.76, 8.88, repro,
2008-06-10,3.08, 2.95, -19.16, 2.35, 1.70, 8.72, repro,
2008-06-11,-0.75, -0.04, -7.26, 2.33, 1.68, 8.65, repro,
2008-06-12,0.94, 0.40, -4.95, 2.33, 1.71, 8.69, repro,
2008-06-13,2.25, 1.18, -13.50, 2.32, 1.69, 8.57, repro,
2008-06-14,3.37, 1.99, -4.71, 2.39, 1.70, 8.65, repro,
2008-06-15,2.04, 2.47, -10.29, 2.28, 1.68, 8.34, repro,
2008-06-16,2.81, 1.66, -15.33, 2.30, 1.65, 8.43, repro,
2008-06-17,3.69, 2.25, -13.46, 2.28, 1.71, 8.56, repro,
2008-06-18,2.38, 1.85, -21.73, 3.02, 1.85, 10.05, repro,
2008-06-19,2.01, 0.05, -6.63, 2.31, 1.72, 8.59, repro,
2008-06-20,1.10, 1.53, -6.83, 2.33, 1.67, 8.53, repro,
2008-06-21,4.99, 3.74, -22.81, 2.35, 1.76, 8.73, repro,
2008-06-22,2.31, 2.36, -8.06, 2.41, 1.79, 9.01, repro,
2008-06-23,2.25, 0.91, -5.78, 2.32, 1.66, 8.44, repro,
2008-06-24,1.91, 1.14, -5.35, 2.31, 1.69, 8.44, repro,
2008-06-25,1.74, 0.42, -4.99, 2.43, 1.78, 8.91, repro,
2008-06-26,2.24, -0.40, -1.45, 2.41, 1.88, 8.97, repro,
2008-06-27,1.83, 1.27, 1.82, 2.33, 1.75, 8.75, repro,
2008-06-28,1.65, 0.52, -0.60, 2.44, 1.95, 9.45, repro,
2008-06-29,3.19, 0.23, -3.01, 2.33, 1.74, 8.76, repro,
2008-06-30,2.95, -1.13, -10.70, 2.25, 1.66, 8.25, repro,
2008-07-01,3.29, -0.01, -4.71, 2.39, 1.73, 8.80, repro,
2008-07-02,3.66, 0.09, -11.17, 2.37, 1.72, 8.64, repro,
2008-07-03,2.01, 0.54, -0.59, 2.41, 1.76, 8.96, repro,
2008-07-04,3.06, 1.34, -11.23, 2.32, 1.68, 8.51, repro,
2008-07-05,1.97, -0.09, -4.25, 2.32, 1.69, 8.47, repro,
2008-07-06,2.05, 3.34, 2.73, 2.39, 1.71, 8.83, repro,
2008-07-07,2.61, -0.70, 2.37, 2.45, 1.80, 8.95, repro,
2008-07-08,1.33, 0.15, -4.56, 2.38, 1.75, 8.72, repro,
2008-07-09,2.49, -0.25, -1.89, 2.34, 1.72, 8.63, repro,
2008-07-10,2.11, 0.91, 2.98, 2.36, 1.70, 8.47, repro,
2008-07-11,4.02, 1.48, -5.24, 2.40, 1.78, 8.98, repro,
2008-07-12,2.54, -0.99, 0.16, 2.37, 1.73, 8.70, repro,
2008-07-13,1.88, 0.99, -5.35, 2.34, 1.78, 8.75, repro,
2008-07-14,1.59, 2.15, 0.53, 2.30, 1.73, 8.58, repro,
2008-07-15,0.17, 3.59, -5.70, 2.28, 1.68, 8.29, repro,
2008-07-16,2.34, 2.34, 3.24, 2.33, 1.68, 8.53, repro,
2008-07-17,3.73, 0.95, -10.20, 2.32, 1.67, 8.47, repro,
2008-07-18,1.98, 1.15, 0.31, 2.42, 1.78, 8.60, repro,
2008-07-19,2.29, 1.62, -0.89, 2.41, 1.69, 8.77, repro,
2008-07-20,3.90, 0.78, 0.35, 2.25, 1.66, 8.21, repro,
2008-07-21,3.22, 0.63, 6.64, 2.33, 1.70, 8.57, repro,
2008-07-22,4.52, 1.22, -6.63, 2.36, 1.72, 8.78, repro,
2008-07-23,2.02, 2.98, 0.46, 2.29, 1.66, 8.31, repro,
2008-07-24,2.50, 0.83, 0.98, 2.32, 1.68, 8.45, repro,
2008-07-25,2.06, 1.44, 1.24, 2.26, 1.65, 8.13, repro,
2008-07-26,2.09, 2.45, 4.62, 2.31, 1.68, 8.43, repro,
2008-07-27,1.53, 1.82, 2.31, 2.30, 1.67, 8.49, repro,
2008-07-28,2.46, 1.20, 5.04, 2.31, 1.67, 8.27, repro,
2008-07-29,1.42, 1.37, 13.37, 2.44, 1.73, 8.98, repro,
2008-07-30,2.11, 1.73, 5.54, 2.49, 1.79, 9.24, repro,
2008-07-31,1.46, 1.25, 6.47, 2.26, 1.65, 8.20, repro,
2008-08-01,1.98, 1.90, 8.68, 2.34, 1.70, 8.56, repro,
2008-08-02,0.91, 2.13, 8.72, 2.33, 1.67, 8.55, repro,
2008-08-03,2.63, 1.21, 2.77, 2.29, 1.69, 8.32, repro,
2008-08-04,3.52, -0.22, 6.33, 2.31, 1.67, 8.35, repro,
2008-08-05,2.66, 0.41, 5.16, 2.30, 1.70, 8.31, repro,
2008-08-06,2.83, -0.06, -4.95, 2.32, 1.67, 8.36, repro,
2008-08-07,1.99, 1.36, 8.04, 2.46, 1.75, 8.92, repro,
2008-08-08,2.47, 2.72, 1.28, 2.34, 1.73, 8.52, repro,
2008-08-09,2.77, 1.25, 1.67, 2.30, 1.64, 8.24, repro,
2008-08-10,2.11, 0.22, 5.76, 2.33, 1.68, 8.34, repro,
2008-08-11,3.00, 0.62, -0.41, 2.40, 1.76, 8.82, repro,
2008-08-12,2.23, -1.47, 4.83, 2.31, 1.67, 8.47, repro,
2008-08-13,1.86, 0.41, 3.24, 2.34, 1.69, 8.61, repro,
2008-08-14,2.40, 0.61, 3.49, 2.33, 1.65, 8.39, repro,
2008-08-15,4.17, 0.30, 4.12, 2.36, 1.68, 8.54, repro,
2008-08-16,4.75, 0.96, -1.21, 2.35, 1.71, 8.56, repro,
2008-08-17,2.31, -0.30, 4.38, 2.34, 1.67, 8.46, repro,
2008-08-18,-0.29, 2.03, 6.59, 2.32, 1.67, 8.42, repro,
2008-08-19,2.99, 2.62, 3.64, 2.30, 1.67, 8.40, repro,
2008-08-20,1.46, 1.60, 10.49, 2.30, 1.65, 8.26, repro,
2008-08-21,1.47, 1.07, 6.55, 2.32, 1.65, 8.31, repro,
2008-08-22,2.88, 0.03, 8.12, 2.30, 1.65, 8.27, repro,
2008-08-23,1.81, -0.64, 11.08, 2.35, 1.69, 8.40, repro,
2008-08-24,0.49, 0.84, 7.46, 2.36, 1.74, 8.65, repro,
2008-08-25,2.92, 2.66, 3.68, 2.39, 1.69, 8.45, repro,
2008-08-26,2.77, 1.26, 4.57, 2.32, 1.66, 8.25, repro,
2008-08-27,3.02, -0.35, 6.09, 2.35, 1.72, 8.52, repro,
2008-08-28,3.33, -0.69, 12.48, 2.44, 1.76, 8.60, repro,
2008-08-29,2.16, 0.92, -0.91, 2.51, 1.76, 9.04, repro,
2008-08-30,2.85, 2.11, 9.84, 2.44, 1.73, 8.85, repro,
2008-08-31,2.76, 1.05, 5.05, 2.54, 1.74, 8.85, repro,
2008-09-01,1.22, -0.31, -1.88, 2.52, 1.78, 9.06, repro,
2008-09-02,2.92, 0.96, -1.00, 2.42, 1.79, 8.79, repro,
2008-09-03,3.47, -0.63, 2.28, 2.45, 1.74, 8.82, repro,
2008-09-04,0.93, 0.60, 1.50, 2.62, 1.89, 9.53, repro,
2008-09-05,1.90, 0.27, 3.37, 2.51, 1.78, 8.93, repro,
2008-09-06,2.11, 0.37, 6.43, 2.36, 1.71, 8.48, repro,
2008-09-07,3.69, 0.95, 4.99, 2.37, 1.73, 8.56, repro,
2008-09-08,2.17, -0.33, 0.01, 2.36, 1.74, 8.62, repro,
2008-09-09,1.82, -0.31, 3.13, 2.59, 1.83, 9.41, repro,
2008-09-10,1.86, 1.24, 1.51, 2.41, 1.81, 8.82, repro,
2008-09-11,2.67, 0.23, 6.91, 2.43, 1.79, 8.87, repro,
2008-09-12,3.19, 0.07, 4.16, 2.39, 1.74, 8.64, repro,
2008-09-13,2.04, 1.40, 11.49, 2.44, 1.80, 8.94, repro,
2008-09-14,3.40, -0.17, 0.60, 2.42, 1.75, 8.91, repro,
2008-09-15,1.67, 0.53, 6.28, 2.40, 1.72, 8.74, repro,
2008-09-16,2.57, 1.24, 1.40, 2.31, 1.73, 8.51, repro,
2008-09-17,4.19, 1.12, 0.01, 2.44, 1.72, 8.65, repro,
2008-09-18,4.51, 3.91, 5.73, 2.41, 1.68, 8.43, repro,
2008-09-19,2.36, 0.92, 8.52, 2.39, 1.67, 8.42, repro,
2008-09-20,1.55, 0.24, 5.69, 2.43, 1.72, 8.82, repro,
2008-09-21,3.36, 0.65, 5.13, 2.29, 1.66, 8.31, repro,
2008-09-22,4.47, 1.43, 3.59, 2.44, 1.71, 8.71, repro,
2008-09-23,2.68, 1.19, 2.72, 2.52, 1.70, 8.77, repro,
2008-09-24,0.73, 0.67, 2.67, 2.60, 1.79, 9.24, repro,
2008-09-25,2.53, 0.71, -2.95, 2.54, 1.73, 9.04, repro,
2008-09-26,1.99, 1.66, 6.59, 2.43, 1.71, 8.58, repro,
2008-09-27,2.42, 0.99, 3.53, 2.42, 1.70, 8.59, repro,
2008-09-28,1.01, 2.22, 9.59, 2.38, 1.67, 8.42, repro,
2008-09-29,1.85, 1.31, 2.71, 2.57, 1.75, 9.00, repro,
2008-09-30,4.01, 2.28, 2.05, 2.54, 1.73, 9.00, repro,
2008-10-01,1.19, 1.77, 3.41, 2.65, 1.90, 9.59, repro,
2008-10-02,3.09, 2.61, 7.42, 2.43, 1.72, 8.80, repro,
2008-10-03,1.22, 1.82, 7.08, 2.43, 1.71, 8.64, repro,
2008-10-04,1.11, 4.76, 0.89, 2.45, 1.68, 8.79, repro,
2008-10-05,0.62, 3.83, 6.85, 2.42, 1.66, 8.60, repro,
2008-10-06,3.18, -0.70, 7.10, 2.46, 1.72, 8.77, repro,
2008-10-07,2.39, 0.32, 0.07, 2.53, 1.70, 8.92, repro,
2008-10-08,1.85, 1.00, 1.79, 2.31, 1.69, 8.35, repro,
2008-10-09,2.24, 0.66, -0.70, 2.54, 1.74, 8.73, repro,
2008-10-10,-0.10, -0.29, -2.63, 2.30, 1.65, 8.09, repro,
2008-10-11,-0.01, -0.43, 2.50, 2.44, 1.74, 8.56, repro,
2008-10-12,1.86, -0.03, -4.65, 2.39, 1.71, 8.45, repro,
2008-10-13,0.03, 0.20, -2.58, 2.39, 1.72, 8.73, repro,
2008-10-14,0.57, 2.27, 2.23, 2.30, 1.69, 8.44, repro,
2008-10-15,0.64, 1.72, 3.41, 2.41, 1.67, 8.35, repro,
2008-10-16,0.93, 1.60, 4.69, 2.48, 1.70, 9.03, repro,
2008-10-17,1.12, 0.84, -5.57, 2.42, 1.68, 8.84, repro,
2008-10-18,1.39, 2.29, -1.51, 2.26, 1.64, 8.17, repro,
2008-10-19,0.31, 2.11, 1.88, 2.53, 1.81, 8.96, repro,
2008-10-20,0.14, 2.05, 1.09, 2.32, 1.65, 8.35, repro,
2008-10-21,-0.03, 2.69, 3.54, 2.43, 1.68, 8.64, repro,
2008-10-22,0.17, -0.28, 5.40, 2.44, 1.70, 8.70, repro,
2008-10-23,0.91, 1.05, 1.64, 2.40, 1.69, 8.67, repro,
2008-10-24,3.84, 2.13, -1.85, 2.32, 1.66, 8.27, repro,
2008-10-25,3.12, 1.85, 1.16, 2.59, 1.82, 9.26, repro,
2008-10-26,1.12, 2.30, -3.64, 2.36, 1.70, 8.51, repro,
2008-10-27,1.35, 1.53, -2.95, 2.42, 1.67, 8.61, repro,
2008-10-28,3.07, 1.48, -7.93, 2.62, 1.85, 9.39, repro,
2008-10-29,1.34, 4.04, -4.91, 2.41, 1.67, 8.54, repro,
2008-10-30,3.58, 1.78, -4.36, 2.51, 1.70, 8.95, repro,
2008-10-31,4.13, 3.79, -6.42, 2.61, 1.79, 9.17, repro,
2008-11-01,2.61, 4.65, -5.75, 2.36, 1.68, 8.62, repro,
2008-11-02,3.02, 4.65, 5.23, 2.40, 1.72, 9.02, repro,
2008-11-03,2.19, 3.48, 5.33, 2.53, 1.87, 9.33, repro,
2008-11-04,0.85, 2.93, 5.44, 2.45, 1.81, 9.00, repro,
2008-11-05,2.34, 3.00, -5.49, 2.36, 1.70, 8.72, repro,
2008-11-06,1.14, 2.58, -3.95, 2.44, 1.78, 9.03, repro,
2008-11-07,1.68, 1.57, -5.14, 2.29, 1.69, 8.38, repro,
2008-11-08,1.30, 1.11, -9.73, 2.26, 1.70, 8.37, repro,
2008-11-09,2.34, -0.51, -10.68, 2.35, 1.71, 8.38, repro,
2008-11-10,1.14, 0.21, -4.40, 2.24, 1.70, 8.11, repro,
2008-11-11,-2.12, 2.55, 2.62, 2.27, 1.68, 8.16, repro,
2008-11-12,-0.59, 5.38, -3.24, 2.30, 1.67, 8.36, repro,
2008-11-13,-2.32, 4.49, -5.50, 2.33, 1.72, 8.57, repro,
2008-11-14,-2.01, 1.59, -5.36, 2.39, 1.77, 8.97, repro,
2008-11-15,2.13, 1.62, -15.51, 2.39, 1.72, 8.75, repro,
2008-11-16,2.49, 1.26, -9.43, 2.36, 1.75, 8.41, repro,
2008-11-17,2.40, 2.55, -8.02, 2.48, 1.80, 8.70, repro,
2008-11-18,3.34, 2.26, -7.76, 2.31, 1.73, 8.57, repro,
2008-11-19,1.64, 2.84, -10.22, 2.42, 1.77, 8.84, repro,
2008-11-20,1.74, 2.66, -5.95, 2.46, 1.78, 8.87, repro,
2008-11-21,0.70, 2.35, -5.37, 2.36, 1.84, 8.78, repro,
2008-11-22,1.57, 2.45, -2.62, 2.29, 1.77, 8.40, repro,
2008-11-23,2.68, 2.51, -7.74, 2.51, 1.83, 8.85, repro,
2008-11-24,1.88, 0.94, -4.72, 2.39, 1.79, 8.99, repro,
2008-11-25,1.71, 2.06, -3.63, 2.35, 1.70, 8.70, repro,
2008-11-26,1.51, 1.44, -1.47, 2.33, 1.70, 8.47, repro,
2008-11-27,1.43, 0.39, -4.45, 2.32, 1.76, 8.54, repro,
2008-11-28,-0.20, 1.12, -0.03, 2.51, 1.82, 8.92, repro,
2008-11-29,-0.75, -0.60, -9.41, 2.29, 1.73, 8.41, repro,
2008-11-30,3.30, 1.31, 1.40, 2.35, 1.69, 8.61, repro,
2008-12-01,3.15, 1.92, -4.26, 2.42, 1.73, 8.70, repro,
2008-12-02,0.50, 1.72, 4.35, 2.27, 1.70, 8.31, repro,
2008-12-03,0.58, 0.67, -0.27, 2.41, 1.72, 8.71, repro,
2008-12-04,-0.77, 0.89, 3.40, 2.30, 1.75, 8.35, repro,
2008-12-05,1.93, 1.42, -4.02, 2.24, 1.69, 8.19, repro,
2008-12-06,2.61, 1.38, -6.66, 2.29, 1.74, 8.48, repro,
2008-12-07,1.52, -0.24, -3.58, 2.26, 1.77, 8.32, repro,
2008-12-08,2.58, 0.31, -2.73, 2.28, 1.73, 8.21, repro,
2008-12-09,2.86, 0.96, -8.48, 2.22, 1.63, 7.81, repro,
2008-12-10,1.89, 0.29, -7.54, 2.41, 1.69, 8.46, repro,
2008-12-11,2.06, 0.88, 0.23, 2.37, 1.68, 8.43, repro,
2008-12-12,2.35, -0.77, -4.34, 2.36, 1.79, 8.59, repro,
2008-12-13,2.88, -0.26, -1.79, 2.22, 1.66, 7.94, repro,
2008-12-14,3.58, 1.59, 1.78, 2.45, 1.72, 8.34, repro,
2008-12-15,2.19, 0.51, 3.88, 2.33, 1.68, 8.02, repro,
2008-12-16,0.73, 0.51, 5.77, 2.45, 1.76, 8.48, repro,
2008-12-17,2.79, 0.51, -11.28, 2.51, 1.78, 8.60, repro,
2008-12-18,4.08, 1.78, -9.01, 2.49, 1.78, 8.75, repro,
2008-12-19,1.85, 1.87, -4.73, 2.36, 1.67, 8.20, repro,
2008-12-20,1.12, 2.83, -6.25, 2.56, 1.85, 9.09, repro,
2008-12-21,-0.40, 5.68, -8.60, 2.32, 1.67, 8.20, repro,
2008-12-22,-0.35, 3.47, 1.47, 2.48, 1.77, 8.74, repro,
2008-12-23,0.27, 2.15, 3.05, 2.32, 1.70, 8.26, repro,
2008-12-24,1.63, 2.38, -4.57, 2.48, 1.76, 8.70, repro,
2008-12-25,1.21, 1.56, 6.09, 2.34, 1.69, 8.26, repro,
2008-12-26,1.28, 1.91, 1.10, 2.32, 1.69, 8.19, repro,
2008-12-27,-1.20, 3.25, -9.01, 2.34, 1.68, 8.31, repro,
2008-12-28,-3.45, 3.63, -2.86, 2.23, 1.66, 8.05, repro,
2008-12-29,4.00, 4.79, -17.48, 2.42, 1.73, 8.86, repro,
2008-12-30,2.81, 0.35, -18.57, 2.44, 1.80, 8.95, repro,
2008-12-31,0.52, 2.73, -12.88, 2.42, 1.74, 8.68, repro,
2009-01-01,-0.99, 3.62, -7.43, 2.40, 1.69, 8.43, repro,